Location: Baller�as
(41.9020°N, 0.1554°W)
Time: 11:30:05
(UTC+00:00)

Cosmos 2322 Rocket - Pass Details

Date: 10 August 2020
Orbit: 831 x 852 km, 71.0° (Epoch: 21 September)

Event Time Altitude Azimuth Distance (km) Brightness Sun altitude
Rises 21:27:05 0° 342° (NNW) 3,418 6.5 -22.2°
Reaches altitude 10° 21:29:45 10° 351° (N) 2,482 5.4 -22.5°
Maximum altitude 21:34:58 36° 57° (ENE) 1,332 3.1 -23.1°
Enters shadow 21:36:05 33° 82° (E) 1,405 3.1 -23.3°
